Lid_Strength_Index
3 3 4 5 10 11 15 12 10 10 9 8 7 8 8 8 9 12 3 1 1 0 -0 -0 -1 -1 -2 -2 -2 -1 -1 -1 -1 -2 -2 -1 -2 -2 -2 -2 -2 -2 -2 -2 -2 -2 -2 -2 -2
5 5 6 8 13 16 14 11 11 10 8 7 7 8 9 10 6 5 4 1 0 -0 -0 -0 -1 -1 -2 -2 -2 -1 -1 -1 -1 -2 -1 -2 -2 -2 -2 -2 -2 -2 -2 -2 -2 -2 -1 -1 -1
6 6 9 11 13 15 14 11 11 9 7 7 9 6 7 8 6 4 2 1 0 0 -0 -0 -1 -1 -2 -2 -2 -1 -1 -2 -1 -2 -2 -2 -2 -2 -2 -2 -2 -2 -2 -2 -2 -2 -1 -1 -1
8 9 11 13 14 12 11 10 9 9 7 7 7 10 7 4 4 3 1 1 1 0 -0 -0 -1 -1 -2 -2 -1 -2 -1 -2 -2 -2 -2 -2 -2 -2 -2 -2 -2 -2 -2 -2 -2 -1 -1 -1 -0
8 11 14 15 14 12 10 8 9 10 9 7 7 10 9 4 3 1 1 1 2 1 -0 -0 -1 -1 -1 -1 -1 -1 -1 -2 -2 -2 -2 -2 -2 -2 -2 -2 -2 -2 -2 -2 -1 -1 -1 -0 0
10 12 16 17 15 13 11 10 9 9 9 7 8 8 8 3 3 2 1 2 1 0 -0 -0 1 -0 -1 -1 -1 -1 -1 -2 -2 -2 -2 -2 -2 -2 -2 -2 -2 -2 -2 -1 -1 -1 -0 0 1
11 13 15 16 15 13 11 10 10 10 9 8 6 9 8 5 3 2 2 2 1 -0 -0 -0 -0 0 1 0 -0 -1 -1 -1 -1 -2 -2 -2 -2 -2 -2 -2 -2 -1 -1 -1 -1 -0 -0 0 1
9 11 14 14 14 14 11 11 10 10 9 5 5 10 9 5 3 3 2 2 1 0 -0 -0 0 0 -0 0 1 1 -0 -0 -1 -1 -1 -0 -1 -1 -1 -1 -2 -1 -0 0 1 1 1 1 1
8 12 14 13 13 12 11 11 10 9 10 7 6 6 5 4 3 3 3 2 1 1 0 1 0 -0 0 0 1 1 1 1 0 0 1 1 1 0 0 -0 -1 -1 -1 -0 0 1 1 0 1
10 13 12 10 10 10 10 10 10 10 11 9 7 5 3 4 3 4 4 4 3 2 1 1 0 0 0 -0 1 1 1 1 0 0 1 1 1 1 1 2 0 -1 -1 -1 -1 -1 -0 1 3
13 12 13 10 13 13 11 10 9 10 11 10 8 7 5 5 5 4 4 3 3 2 1 1 1 0 0 0 1 1 1 1 1 2 1 1 1 2 2 3 2 1 2 2 1 2 2 2 2
14 12 13 12 12 12 12 10 10 10 10 9 8 5 5 5 5 4 4 3 3 2 1 1 1 1 0 1 2 2 2 2 2 2 2 2 3 4 4 3 3 3 3 3 3 3 3 3 2
13 13 13 13 12 11 11 11 10 10 8 7 5 5 5 5 4 4 3 3 2 2 2 1 1 0 0 2 2 2 2 2 1 2 2 2 3 4 4 3 3 3 3 4 4 4 3 3 2
13 14 13 12 12 12 12 10 10 9 6 7 5 6 5 5 4 5 4 3 3 2 2 1 1 0 1 2 2 2 2 1 2 2 2 3 3 3 3 4 3 4 4 3 3 3 3 3 3
14 15 14 13 12 12 9 12 11 8 6 6 6 6 5 5 4 4 3 4 3 2 2 2 1 1 1 1 2 2 1 1 1 1 2 2 3 3 3 3 3 3 3 3 3 3 3 4 3
18 18 21 17 15 14 14 17 11 11 12 9 8 7 6 5 4 3 3 3 4 3 2 2 1 1 1 1 1 1 1 1 1 1 1 1 2 2 3 3 3 3 3 3 3 4 4 3 3
21 24 22 20 16 15 15 18 15 13 13 13 11 10 9 7 4 4 3 3 3 3 2 2 2 2 1 1 1 1 1 0 0 0 1 1 1 2 2 3 3 3 3 3 3 3 3 3 3
23 23 21 22 18 15 17 17 15 14 14 15 14 12 11 11 8 4 3 3 2 3 3 2 2 2 2 1 1 1 1 1 0 0 1 1 1 1 2 2 3 3 3 3 3 3 3 3 3
20 22 22 19 16 17 17 18 16 14 14 15 15 13 11 11 8 8 3 2 2 2 4 2 2 2 2 2 2 2 2 1 0 0 0 1 1 1 2 2 2 2 3 3 3 3 3 3 2
20 21 22 18 15 16 17 18 15 13 13 13 14 14 12 10 9 9 8 3 3 2 4 3 2 2 2 1 1 1 1 1 1 0 -0 1 1 1 1 2 2 2 2 3 2 2 2 2 1
19 20 20 19 16 15 17 19 17 14 13 12 12 12 12 10 9 8 9 7 3 3 3 4 2 2 2 1 1 2 1 1 2 1 1 1 1 1 1 2 2 2 2 2 2 2 2 3 1
19 17 16 16 17 21 15 23 18 15 14 12 11 11 13 11 9 9 7 8 5 3 2 2 3 2 2 1 1 2 2 3 2 1 1 1 1 2 1 2 2 2 1 2 2 1 2 2 3
18 15 16 16 17 18 18 21 20 15 14 13 11 9 9 11 11 11 8 6 5 3 2 2 2 2 2 2 1 2 2 2 1 2 2 1 2 2 2 2 2 2 2 1 1 1 1 1 2
15 17 16 17 17 26 20 20 19 16 14 12 11 9 9 9 10 11 10 9 7 6 5 4 3 3 2 2 2 2 2 2 2 3 2 2 2 2 2 2 2 1 1 2 2 1 1 1 1
17 21 27 28 28 25 18 18 17 13 11 11 11 9 10 10 10 10 10 10 9 8 7 6 5 4 2 2 2 2 2 2 3 3 3 3 2 1 2 2 2 2 1 1 1 1 1 2 2
18 19 24 29 25 22 16 20 17 12 11 9 9 10 11 11 10 11 9 10 10 9 8 8 7 6 5 2 2 2 2 2 3 3 3 3 2 1 2 2 2 3 3 3 3 4 6 5 6
18 24 17 21 19 22 20 17 13 11 11 11 10 11 12 10 10 11 10 10 10 10 10 9 9 8 6 6 2 2 2 2 3 3 2 2 2 3 3 3 5 6 6 6 6 7 8 9 9
17 15 23 23 30 29 22 20 19 15 13 11 11 11 12 11 10 10 10 10 11 10 11 10 9 9 8 6 6 2 1 1 1 2 2 2 4 5 5 6 7 7 7 8 8 9 9 10 11
18 20 21 22 21 25 24 21 15 16 14 14 13 12 11 11 10 10 10 10 11 11 10 11 11 11 10 8 7 6 2 2 1 2 3 4 6 7 7 7 7 8 8 9 9 11 10 12 13
17 18 18 25 25 20 21 22 14 13 13 14 13 11 10 10 11 11 11 11 11 11 10 10 12 12 11 10 9 7 6 3 3 5 6 6 8 8 8 7 8 9 9 10 11 12 13 14 14